DELTA 1 DEB, 2518

Orbit data source: Space-Track

DELTA 1 DEB, 2518 is space debris in SSO originally from a launch on Sun, 02 Oct 1966 UTC launched from the Air Force Western Test Range (AFWTR). Debris objects in space refer to the collection of defunct objects orbiting the Earth. Examples of debris include non-operational satellites, rocket bodies, and fragments generated from explosions, collisions, or faulty payload assembly.

Loading next visibility...
Identifier
2518, 1966-087C
Orbit
SSO
Country
Flag of USUS
Related business
Manufacturer
Unknown
Mission
Spacecraft
Bus & Motor
Unknown
Mass
1 kg wet, 1 kg dry
Launch date (UTC)
1966-10-02 (59 years ago)
Launch vehicle
Unknown
Launch site
Air Force Western Test Range (AFWTR)
Object type
Payload
Rocket body
Debris
Shape & HBR
Unknown
Radar Cross Section
Small (<0.1 m²)

Expand to show TLE details & history
Last TLE update: 5 days ago

TLE from 5 days ago
0 DELTA 1 DEB
1 02518U 66087C   26068.20195288 -.00000072  00000-0 -24237-3 0  9992
2 02518 100.8460 167.6403 0081119  37.9577 350.9371 12.42702568695007
Epoch: 2026-03-09T04:50Z
TLE epoch observation values (Epoch: 2026-03-09T04:50:48.728Z)
Latitude
28.22893°
Longitude
-77.83541°
Altitude
1,435.312 km
Speed
7.175 km/s
True Right ascension
10h 47m 03s
True Declination
28° 05' 54"
Sunlit
Object was in full shadow at epoch
Visualization orbit readout
Latitude
Unknown
Longitude
Unknown
Altitude
Unknown
Speed
Unknown
Apparent Right ascension
Unknown
Apparent Declination
Unknown
Sunlit
N/A
Visualization observer readout
Local Sidereal Time
00:57:28
Azimuth
Unknown
Elevation
Unknown
Doppler factor
Unknown
Orbital elements
Apogee altitude
1,556.52 km
Perigee altitude
1,428.826 km
Semi-major axis
7,870.81 km
Eccentricity
0.00811
Inclination
100.846°
RAAN
167.6403°
Arg. of periapsis
37.9577°
True anomaly
350.7892°
Mean anomaly
350.9371°
Eccentric anomaly
350.8633°
Mean motion
3.10824 °/min
Orbital period
115.82 mins
BSTAR
-0.00024237
Loading maneuver chart data...
Computing Atmospheric mass density...
Loading historical data...
Loading historical data...
Loading historical data...
Loading historical data...
Loading historical data...
Loading historical data...
Loading historical data...
Other satellites on launch #87 in the year 1966 (1966-10-02 UTC)

Documentation

Showing up to 5 results
|